Location: Asheville, NC
(35.6000°N, 82.5500°W)
Time: 17:03:43
(UTC-05:00)

XW-2B - Pass Details

Date: 03 January 2018
Orbit: 511 x 531 km, 97.5° (Epoch: 21 January)

Event Time Altitude Azimuth Distance (km) Brightness Sun altitude
Rises 06:19:03 0° 16° (NNE) 2,658 ? -16.1°
Reaches altitude 10° 06:21:13 10° 21° (NNE) 1,762 ? -15.6°
Maximum altitude 06:24:56 54° 100° (E) 636 ? -14.9°
Drops below altitude 10° 06:28:36 10° 178° (S) 1,737 ? -14.2°
Sets 06:30:43 0° 183° (S) 2,616 ? -13.8°
